User: anonymous   Login
Location: Unspecified
(0.0000°N, 0.0000°E)
Time: 18:07:18
(UTC+00:00)
Language:

STARLINK-33998 - Orbit

View from above orbital plane
View from above orbital plane
View from above satellite
View from above satellite

Ground track
Ground track

The orbit is defined by the following mean orbital elements,

1 63951U          26145.52523677 +.00000000 +00000-0 +12619-3 0 00004
2 63951  70.0010  80.6460 0003552 257.9630 102.1131 14.98335222    03
Epoch (UTC): 25 May 2026 12:36:20
Eccentricity: 0.0003552
inclination: 70.0010°
perigee height: 570 km
apogee height: 575 km
right ascension of ascending node: 80.6460°
argument of perigee: 257.9630°
revolutions per day: 14.98335222
mean anomaly at epoch: 102.1131°

The dashed part of the orbit path shows where the satellite is in the earth's shadow,  

DLR